Find Kuiper-00087

NORAD ID: 64833 Int'l Des: 2025-151 Owner: KUIP Country: US Constellation: amazon-leo operational
LEOCIRCULAR

Aktuelle Ansicht

3D-Globus wird geladen...

Über Kuiper-00087

Beschreibung wird geladen...

Nächste Überflüge

Passes for default location (London). Set your location on the main map for personalized predictions.

Höhenverlauf

Loading altitude history...

Zweizeiliger Elementsatz

1 64833U 25151T 26150.72910061 .00001530 00000-0 22962-3 0 9991
2 64833 51.9002 277.7981 0000600 86.3030 273.8001 14.79931950 47729
Epoch: 30. Mai 2026 • Age: 24 hours

Aktueller Status

Höhe 638.7 km
Geschwindigkeit 7.54 km/s
Subsatellitenpunkt -29.68°S, 26.98°W
Startdatum 16. Juli 2025
Alter 0.8 years
Typ internet

Technische Details

Klassifizierung Payload
Masse 490.00 kg
Trockenmasse 490.00 kg
Gesamtmasse 490.00 kg
Länge 1.80 m
Durchmesser 0.70 m
Spannweite 5.00 m
Form Box + 2 pan
Hersteller KUIP
Bus-Typ Kuiper
Phasenstatus In Orbit
Besitzer/Staat KUIP/US

Most Searched